Time,TemperatureF,DewpointF,PressureIn,WindDirection,WindDirectionDegrees,WindSpeedMPH,WindSpeedGustMPH,Humidity,HourlyPrecipIn,Conditions,Clouds,dailyrainin,SoftwareType,DateUTC
2013-11-27 00:00:00,29.9,28.9,29.64,NNW,337,6.0,15.0,96,0.00,,,-99.99,WeatherLink 5.6,2013-11-27 05:00:00,
2013-11-27 00:30:00,29.2,28.2,29.64,NNW,337,6.0,14.0,96,0.00,,,-99.99,WeatherLink 5.6,2013-11-27 05:30:00,
2013-11-27 01:00:00,28.9,27.6,29.65,NNW,337,5.0,13.0,95,0.00,,,-99.99,WeatherLink 5.6,2013-11-27 06:00:00,
2013-11-27 01:30:00,28.4,27.2,29.65,NNW,337,7.0,15.0,95,0.00,,,-99.99,WeatherLink 5.6,2013-11-27 06:30:00,
2013-11-27 02:00:00,27.6,26.4,29.65,NNW,337,7.0,15.0,95,0.00,,,-99.99,WeatherLink 5.6,2013-11-27 07:00:00,
2013-11-27 02:30:00,26.9,25.7,29.65,NNW,337,7.0,17.0,95,0.00,,,-99.99,WeatherLink 5.6,2013-11-27 07:30:00,
2013-11-27 03:00:00,26.8,25.6,29.66,NNW,337,7.0,17.0,95,0.00,,,-99.99,WeatherLink 5.6,2013-11-27 08:00:00,
2013-11-27 03:30:00,26.4,25.2,29.65,NNW,337,8.0,18.0,95,0.00,,,-99.99,WeatherLink 5.6,2013-11-27 08:30:00,
2013-11-27 04:00:00,25.8,24.3,29.65,NNW,337,8.0,20.0,94,0.00,,,-99.99,WeatherLink 5.6,2013-11-27 09:00:00,
2013-11-27 04:30:00,25.9,24.4,29.66,NNW,337,7.0,18.0,94,0.00,,,-99.99,WeatherLink 5.6,2013-11-27 09:30:00,
2013-11-27 05:00:00,25.5,24.0,29.67,NNW,337,8.0,20.0,94,0.00,,,-99.99,WeatherLink 5.6,2013-11-27 10:00:00,
2013-11-27 05:30:00,25.2,23.7,29.69,NNW,337,8.0,20.0,94,0.00,,,-99.99,WeatherLink 5.6,2013-11-27 10:30:00,
2013-11-27 06:00:00,24.7,23.2,29.70,NNW,337,8.0,16.0,94,0.00,,,-99.99,WeatherLink 5.6,2013-11-27 11:00:00,
2013-11-27 06:30:00,24.5,23.0,29.71,NNW,337,8.0,16.0,94,0.00,,,-99.99,WeatherLink 5.6,2013-11-27 11:30:00,
2013-11-27 07:00:00,24.4,22.9,29.71,NNW,337,9.0,19.0,94,0.00,,,-99.99,WeatherLink 5.6,2013-11-27 12:00:00,
2013-11-27 07:30:00,24.2,22.7,29.74,NNW,337,9.0,19.0,94,0.00,,,-99.99,WeatherLink 5.6,2013-11-27 12:30:00,
2013-11-27 08:00:00,24.1,22.6,29.75,NNW,337,8.0,15.0,94,0.00,,,-99.99,WeatherLink 5.6,2013-11-27 13:00:00,
2013-11-27 08:30:00,23.9,22.4,29.75,NNW,337,8.0,22.0,94,0.00,,,-99.99,WeatherLink 5.6,2013-11-27 13:30:00,
2013-11-27 09:00:00,23.9,22.4,29.75,NNW,337,9.0,22.0,94,0.00,,,-99.99,WeatherLink 5.6,2013-11-27 14:00:00,
2013-11-27 09:30:00,24.0,22.5,29.76,NNW,337,9.0,20.0,94,0.00,,,-99.99,WeatherLink 5.6,2013-11-27 14:30:00,
2013-11-27 10:00:00,24.0,22.5,29.76,NNW,337,8.0,16.0,94,0.00,,,-99.99,WeatherLink 5.6,2013-11-27 15:00:00,
2013-11-27 10:30:00,23.7,22.2,29.77,NW,315,8.0,20.0,94,0.00,,,-99.99,WeatherLink 5.6,2013-11-27 15:30:00,
2013-11-27 11:00:00,22.2,20.7,29.78,NNW,337,11.0,27.0,94,0.00,,,-99.99,WeatherLink 5.6,2013-11-27 16:00:00,
2013-11-27 11:30:00,21.7,20.2,29.79,NW,315,8.0,16.0,94,0.00,,,-99.99,WeatherLink 5.6,2013-11-27 16:30:00,
2013-11-27 12:00:00,21.4,19.7,29.80,NW,315,10.0,21.0,93,0.00,,,-99.99,WeatherLink 5.6,2013-11-27 17:00:00,
2013-11-27 12:30:00,20.6,18.9,29.81,NW,315,9.0,20.0,93,0.00,,,-99.99,WeatherLink 5.6,2013-11-27 17:30:00,
2013-11-27 13:00:00,20.6,18.9,29.82,NW,315,9.0,22.0,93,0.00,,,-99.99,WeatherLink 5.6,2013-11-27 18:00:00,
2013-11-27 13:30:00,20.3,18.6,29.84,NW,315,10.0,23.0,93,0.00,,,-99.99,WeatherLink 5.6,2013-11-27 18:30:00,
2013-11-27 14:00:00,19.9,18.2,29.84,NW,315,9.0,22.0,93,0.00,,,-99.99,WeatherLink 5.6,2013-11-27 19:00:00,
2013-11-27 14:30:00,20.5,18.8,29.86,NW,315,9.0,20.0,93,0.00,,,-99.99,WeatherLink 5.6,2013-11-27 19:30:00,
2013-11-27 15:00:00,20.2,18.5,29.89,NW,315,10.0,26.0,93,0.00,,,-99.99,WeatherLink 5.6,2013-11-27 20:00:00,
2013-11-27 15:30:00,20.2,18.5,29.91,NW,315,8.0,24.0,93,0.00,,,-99.99,WeatherLink 5.6,2013-11-27 20:30:00,
2013-11-27 16:00:00,19.7,18.0,29.94,NW,315,10.0,25.0,93,0.00,,,-99.99,WeatherLink 5.6,2013-11-27 21:00:00,
2013-11-27 16:30:00,19.5,17.8,29.96,NW,315,10.0,22.0,93,0.00,,,-99.99,WeatherLink 5.6,2013-11-27 21:30:00,
2013-11-27 17:00:00,19.1,17.4,29.99,NW,315,7.0,17.0,93,0.00,,,-99.99,WeatherLink 5.6,2013-11-27 22:00:00,
2013-11-27 17:30:00,18.9,17.2,30.01,NW,315,9.0,22.0,93,0.00,,,-99.99,WeatherLink 5.6,2013-11-27 22:30:00,
2013-11-27 18:00:00,18.8,17.1,30.02,NW,315,8.0,25.0,93,0.00,,,-99.99,WeatherLink 5.6,2013-11-27 23:00:00,
2013-11-27 18:30:00,18.5,16.8,30.05,NW,315,9.0,27.0,93,0.00,,,-99.99,WeatherLink 5.6,2013-11-27 23:30:00,
2013-11-27 19:00:00,18.1,16.4,30.07,NW,315,8.0,17.0,93,0.00,,,-99.99,WeatherLink 5.6,2013-11-28 00:00:00,
2013-11-27 19:30:00,18.0,16.3,30.08,NW,315,7.0,17.0,93,0.00,,,-99.99,WeatherLink 5.6,2013-11-28 00:30:00,
2013-11-27 20:00:00,17.9,16.0,30.10,NW,315,7.0,18.0,92,0.00,,,-99.99,WeatherLink 5.6,2013-11-28 01:00:00,
2013-11-27 20:30:00,17.7,16.0,30.12,NW,315,8.0,18.0,93,0.00,,,-99.99,WeatherLink 5.6,2013-11-28 01:30:00,
2013-11-27 21:00:00,17.5,15.6,30.13,NW,315,7.0,17.0,92,0.00,,,-99.99,WeatherLink 5.6,2013-11-28 02:00:00,
2013-11-27 21:30:00,17.3,15.4,30.15,NW,315,7.0,19.0,92,0.00,,,-99.99,WeatherLink 5.6,2013-11-28 02:30:00,
2013-11-27 22:00:00,16.9,15.0,30.15,NW,315,10.0,20.0,92,0.00,,,-99.99,WeatherLink 5.6,2013-11-28 03:00:00,
2013-11-27 22:30:00,16.9,15.0,30.18,NW,315,7.0,15.0,92,0.00,,,-99.99,WeatherLink 5.6,2013-11-28 03:30:00,
2013-11-27 23:00:00,16.7,14.8,30.18,NW,315,5.0,11.0,92,0.00,,,-99.99,WeatherLink 5.6,2013-11-28 04:00:00,
2013-11-27 23:30:00,16.0,14.1,30.21,NW,315,7.0,15.0,92,0.00,,,-99.99,WeatherLink 5.6,2013-11-28 04:30:00,